[[{"header":{"parameterUnit":"m.s-1","parameterCategory":1,"la1":30.2991,"la2":30.254,"lo1":-89.0895,"lo2":-89.0444,"dy":0.0017,"dx":0.0017,"nx":28,"ny":28,"refTime":"2024-02-17T09:00:00:Z","depth":0,"parameterNumber":2,"parameterNumberName":"U-component_of_WINDS"},"data":[0,0,0,0,0,0,0,0,0,0,0,0,0,0,0,0,0,0,0,0,0,0,0,0,0,0,0,0,0,0,0,0,0,0,0,0,0,0,0,0,0,0,0,0,0,0,0,0,0,0,0,0,0,0,0,0,0,0,0.5701,0.57,0,0.5653,0.5652,0.5652,0.5652,0.5653,0.5654,0.5654,0.5603,0.5601,0.5599,0,0,0,0,0,0,0,0,0,0,0,0,0,0.579,0.5788,0.5701,0.57,0.5699,0.5653,0.5652,0.5652,0.5652,0.5653,0.5654,0.5654,0.5603,0.5601,0.5599,0,0,0,0,0,0,0,0,0,0,0,0,0,0.5747,0.5788,0.5701,0.5694,0.5693,0.5653,0.5652,0.5652,0.5652,0.5653,0.5654,0.5655,0.5604,0.5601,0.5598,0.5561,0,0,0.5589,0.5588,0,0,0,0,0,0,0,0,0.575,0.5744,0.5696,0.5695,0.5693,0.566,0.5665,0.5621,0.5652,0.5668,0.5654,0.5655,0.5621,0.5616,0.5605,0.5558,0.5556,0.5589,0.5587,0.5586,0.5585,0,0,0,0,0,0,0,0.5753,0.5746,0.5682,0.5695,0.5694,0.5693,0.5688,0.5657,0.5639,0.5666,0.5666,0.5661,0.562,0.5608,0.5604,0.5555,0.5589,0.5586,0.5585,0.5583,0.5475,0.5474,0,0,0,0,0,0,0.5757,0.5749,0.5683,0.568,0.5725,0.5691,0.5685,0.5669,0.564,0.5636,0.566,0.5661,0.5613,0.5607,0.5602,0.5556,0.5586,0.5583,0.5581,0.5476,0.5475,0.5474,0,0,0,0,0,0,0.5759,0.5752,0.5685,0.5714,0.5706,0.5688,0.567,0.5668,0.5656,0.5635,0.5631,0.5651,0.5613,0.5606,0.5571,0.5554,0.5582,0.5579,0.5478,0.5476,0.5474,0.5463,0,0,0,0,0,0,0.5762,0.5752,0.5738,0.5714,0.5704,0.5655,0.5669,0.5666,0.5651,0.5652,0.5625,0.5622,0.5613,0.5576,0.5568,0.555,0.5577,0.5479,0.5477,0.5475,0.5465,0.5461,0.5458,0,0,0,0,0,0.5765,0.5736,0.5738,0.573,0.5687,0.5654,0.5649,0.564,0.565,0.5635,0.5622,0.5623,0.5558,0.5572,0.5564,0.5545,0.548,0.5477,0.5475,0.5466,0.5462,0.5458,0,0,0,0,0,0,0.5758,0.5733,0.5734,0.5697,0.5678,0.5655,0.5636,0.5636,0.5613,0.5615,0.5604,0.5598,0.5563,0.5551,0.5567,0.5507,0.552,0.5516,0.5516,0.5512,0.5509,0.5512,0.5574,0,0,0,0,0,0.5752,0.5729,0.5708,0.5678,0.5668,0.5654,0.5639,0.5635,0.5614,0.5606,0.559,0.5569,0.5544,0.5527,0.5503,0.5464,0.5458,0.5447,0.5444,0.5441,0.5437,0.5415,0.5409,0.5466,0.5466,0.5466,0,0,0.574,0.5723,0.5709,0.5676,0.566,0.5636,0.5647,0.562,0.5602,0.5601,0.5567,0.5555,0.5531,0.5494,0.5477,0.5482,0.542,0.5438,0.5436,0.5433,0.5412,0.5406,0.5401,0.5464,0.5464,0.5465,0,0,0.5704,0.569,0.5662,0.5647,0.5624,0.5615,0.5609,0.5586,0.5578,0.5544,0.5543,0.5521,0.5478,0.5461,0.5446,0.5406,0.5405,0.5398,0.538,0.5358,0.5354,0.535,0.5335,0.5329,0.5395,0.5395,0.5394,0,0.5691,0.5654,0.5648,0.5621,0.5606,0.5607,0.5578,0.5564,0.5534,0.5523,0.5531,0.5477,0.5461,0.5419,0.541,0.5399,0.539,0.54,0.5355,0.5351,0.5347,0.5332,0.5327,0.5394,0.5394,0.5394,0.5394,0,0.5639,0.5614,0.5594,0.5566,0.555,0.5522,0.5511,0.5495,0.5492,0.5482,0.5447,0.5428,0.54,0.539,0.5387,0.5348,0.5352,0.5358,0.537,0.5341,0.5327,0.5321,0.5392,0.5393,0.5393,0.5393,0,0,0.5596,0.5566,0.5558,0.5546,0.5521,0.5501,0.5474,0.5448,0.5433,0.5413,0.5389,0.5354,0.5359,0.5342,0.5337,0.5319,0.5287,0.5326,0.5326,0.5319,0.5242,0.5237,0.5231,0.5287,0.5286,0.5285,0.5244,0,0.5556,0.5509,0.5502,0.546,0.5436,0.5437,0.5413,0.5395,0.5385,0.5363,0.5352,0.5326,0.5336,0.5326,0.5308,0.5295,0.5271,0.5298,0.5264,0.5263,0.5268,0.5223,0.5218,0.5179,0.5238,0.5237,0.5237,0,0.5504,0.5483,0.5438,0.5417,0.5407,0.5386,0.5361,0.534,0.532,0.5314,0.5297,0.5294,0.5266,0.5281,0.5241,0.5259,0.5245,0.5237,0.5235,0.523,0.5247,0.5216,0.5167,0.5161,0.5228,0.5229,0.5229,0,0.5475,0.5436,0.5404,0.5394,0.5369,0.5353,0.5342,0.5323,0.5308,0.5286,0.5276,0.5251,0.5237,0.5218,0.5208,0.522,0.5168,0.5183,0.5162,0.5162,0.5149,0.515,0.5096,0.5143,0.5143,0.5143,0.5143,0,0.5431,0.5403,0.5391,0.5371,0.534,0.5334,0.5303,0.5292,0.5275,0.5252,0.5252,0.5231,0.5221,0.5198,0.519,0.5158,0.5152,0.5145,0.5143,0.5145,0.5145,0.5134,0.5136,0.5141,0.5142,0.5142,0.5142,0,0.5393,0.5384,0.5349,0.5329,0.5323,0.5301,0.5283,0.5264,0.5255,0.5227,0.5219,0.5205,0.5178,0.5168,0.5135,0.513,0.5092,0.5093,0.5099,0.5098,0.5077,0.5078,0.5012,0.5003,0.5058,0.5057,0.5057,0,0.5365,0.5344,0.5321,0.5307,0.5295,0.5272,0.5256,0.5249,0.5233,0.5209,0.5192,0.5166,0.5144,0.5101,0.5087,0.5062,0.5061,0.504,0.5057,0.5059,0.506,0.506,0.5058,0.5036,0.5036,0.5035,0.5035,0,0.5315,0.5312,0.529,0.5267,0.5249,0.523,0.5211,0.5199,0.519,0.5171,0.5145,0.5128,0.5095,0.5068,0.5043,0.503,0.503,0.503,0.5024,0.5023,0.5027,0.5024,0.5088,0.5031,0.5031,0.5032,0.5032,0.5032,0.528,0.5261,0.5243,0.5219,0.5204,0.5187,0.5168,0.5157,0.5135,0.5108,0.5105,0.5076,0.5057,0.5022,0.5009,0.4986,0.4991,0.4982,0.498,0.4977,0.4975,0.5033,0.4982,0.4982,0.4982,0.4982,0.4982,0,0.5229,0.5218,0.5196,0.5171,0.5152,0.5155,0.5135,0.5119,0.5093,0.5076,0.5055,0.5024,0.4998,0.4983,0.4958,0.4942,0.4941,0.4935,0.4935,0.4932,0.4972,0.498,0.4936,0.4936,0.4936,0.4936,0.4936,0.4936,0.5201,0.5169,0.5163,0.5124,0.5113,0.5085,0.5073,0.5057,0.5043,0.5009,0.4988,0.4979,0.4962,0.4935,0.4912,0.4908,0.4898,0.4891,0.4888,0.4925,0.493,0.4934,0.4941,0.489,0.489,0.485,0.4849,0.4849]},{"header":{"parameterUnit":"m.s-1","parameterCategory":1,"la1":30.2991,"la2":30.254,"lo1":-89.0895,"lo2":-89.0444,"dy":0.0017,"dx":0.0017,"nx":28,"ny":28,"refTime":"2024-02-17T09:00:00:Z","depth":0,"parameterNumber":3,"parameterNumberName":"V-component_of_WINDS"},"data":[0,0,0,0,0,0,0,0,0,0,0,0,0,0,0,0,0,0,0,0,0,0,0,0,0,0,0,0,0,0,0,0,0,0,0,0,0,0,0,0,0,0,0,0,0,0,0,0,0,0,0,0,0,0,0,0,0,0,-3.9803,-3.9804,0,-3.9934,-3.9935,-3.9937,-3.9888,-3.9885,-3.9882,-3.9879,-4.0011,-4.0017,-4.0023,0,0,0,0,0,0,0,0,0,0,0,0,0,-3.9507,-3.9512,-3.9803,-3.9804,-3.9806,-3.9934,-3.9935,-3.9937,-3.9889,-3.9885,-3.9882,-3.9878,-4.0009,-4.0016,-4.0024,0,0,0,0,0,0,0,0,0,0,0,0,0,-3.9636,-3.9514,-3.9802,-3.9797,-3.9798,-3.9933,-3.9935,-3.9938,-3.9889,-3.9885,-3.9881,-3.9876,-4.0006,-4.0015,-4.0025,-4.0172,0,0,-4.0053,-4.0057,0,0,0,0,0,0,0,0,-3.9629,-3.9647,-3.9796,-3.9798,-3.9799,-3.989,-3.9879,-4.0016,-3.9891,-3.9855,-3.9879,-3.9874,-3.9974,-3.9986,-4.002,-4.0178,-4.0183,-4.0054,-4.006,-4.0064,-4.0066,0,0,0,0,0,0,0,-3.962,-3.9641,-3.9854,-3.9798,-3.98,-3.9787,-3.9801,-3.9905,-3.9938,-3.9857,-3.9854,-3.9871,-3.9974,-4.0011,-4.0023,-4.0185,-4.0054,-4.0062,-4.0068,-4.0072,-4.047,-4.0474,0,0,0,0,0,0,-3.9611,-3.9634,-3.985,-3.9858,-3.9701,-3.9796,-3.9811,-3.9865,-3.9936,-3.9943,-3.9874,-3.9868,-3.9997,-4.0012,-4.0027,-4.0204,-4.0064,-4.0073,-4.0078,-4.0465,-4.0471,-4.0476,0,0,0,0,0,0,-3.9605,-3.9631,-3.9845,-3.9745,-3.9772,-3.9806,-3.9867,-3.987,-3.9908,-3.9949,-3.9954,-3.9907,-3.9994,-4.0014,-4.0136,-4.0208,-4.0077,-4.0085,-4.0459,-4.0466,-4.0473,-4.0559,0,0,0,0,0,0,-3.9596,-3.9629,-3.9686,-3.9747,-3.9777,-3.9953,-3.9872,-3.9876,-3.9924,-3.9917,-3.9981,-3.9987,-3.9992,-4.0122,-4.0146,-4.0218,-4.0093,-4.0453,-4.0462,-4.0471,-4.055,-4.0568,-4.0584,0,0,0,0,0,-3.9586,-3.9704,-3.9689,-3.9715,-3.985,-3.9957,-3.9975,-3.9979,-3.993,-3.9987,-4.0014,-3.9985,-4.0196,-4.0135,-4.0161,-4.0238,-4.0448,-4.046,-4.047,-4.0542,-4.0565,-4.0584,0,0,0,0,0,0,-3.965,-3.9712,-3.9696,-3.9838,-3.9893,-3.9949,-4.0022,-4.0003,-4.0072,-4.0062,-4.0064,-4.0079,-4.0205,-4.0233,-4.0164,-4.0383,-4.0315,-4.0331,-4.0361,-4.0382,-4.0399,-4.039,-4.01,0,0,0,0,0,-3.968,-3.9764,-3.9813,-3.9934,-3.9962,-3.9987,-4.0034,-4.0033,-4.009,-4.0112,-4.0148,-4.0203,-4.0281,-4.0333,-4.0408,-4.0553,-4.0566,-4.0619,-4.0636,-4.065,-4.0664,-4.0743,-4.0767,-4.0512,-4.0512,-4.0512,0,0,-3.9744,-3.9789,-3.9841,-3.9948,-3.999,-4.0075,-4.0007,-4.01,-4.0163,-4.0126,-4.0244,-4.0272,-4.0333,-4.0468,-4.0529,-4.0496,-4.0737,-4.0664,-4.0675,-4.0682,-4.0757,-4.0781,-4.0802,-4.052,-4.0519,-4.0517,0,0,-3.9905,-3.9947,-4.0052,-4.0096,-4.0161,-4.0177,-4.0202,-4.0262,-4.0279,-4.0398,-4.0371,-4.0445,-4.0581,-4.0626,-4.0666,-4.0843,-4.0819,-4.0867,-4.0957,-4.1033,-4.1053,-4.1071,-4.1134,-4.1157,-4.0881,-4.0881,-4.0882,0,-3.9976,-4.0105,-4.0108,-4.0204,-4.0251,-4.0222,-4.0327,-4.0369,-4.0455,-4.0488,-4.045,-4.0619,-4.0658,-4.0803,-4.0846,-4.0879,-4.0907,-4.086,-4.105,-4.1068,-4.1085,-4.1145,-4.1169,-4.0887,-4.0886,-4.0886,-4.0885,0,-4.0189,-4.0279,-4.0355,-4.044,-4.0496,-4.0596,-4.0613,-4.0669,-4.0662,-4.0682,-4.0802,-4.0848,-4.0931,-4.0965,-4.096,-4.1109,-4.1086,-4.1049,-4.098,-4.1115,-4.1171,-4.1194,-4.0895,-4.0893,-4.0891,-4.089,0,0,-4.0394,-4.0479,-4.0508,-4.0546,-4.0615,-4.0684,-4.0782,-4.0865,-4.0912,-4.0972,-4.1054,-4.1169,-4.1135,-4.1181,-4.118,-4.1247,-4.1384,-4.1202,-4.1203,-4.1234,-4.1551,-4.1579,-4.1605,-4.1368,-4.1372,-4.1376,-4.1546,0,-4.0561,-4.0735,-4.074,-4.0898,-4.0981,-4.0953,-4.1039,-4.109,-4.1111,-4.1182,-4.1204,-4.1286,-4.1235,-4.1263,-4.1328,-4.1353,-4.1447,-4.1341,-4.1443,-4.1447,-4.143,-4.1635,-4.1665,-4.1823,-4.1568,-4.1571,-4.1574,0,-4.0778,-4.0846,-4.1013,-4.1071,-4.1105,-4.1182,-4.1258,-4.1327,-4.1384,-4.1394,-4.1446,-4.1434,-4.1533,-4.146,-4.1596,-4.1524,-4.1565,-4.1584,-4.159,-4.1601,-4.1519,-4.1651,-4.1873,-4.1897,-4.1609,-4.1606,-4.1604,0,-4.0911,-4.1044,-4.1162,-4.1195,-4.1265,-4.1319,-4.1351,-4.1403,-4.1453,-4.1518,-4.155,-4.1625,-4.1667,-4.1725,-4.1734,-4.168,-4.187,-4.1798,-4.1881,-4.1881,-4.1923,-4.192,-4.2156,-4.1949,-4.1949,-4.1948,-4.1948,0,-4.1097,-4.12,-4.1222,-4.1295,-4.1409,-4.1413,-4.1526,-4.1553,-4.16,-4.1676,-4.1656,-4.1727,-4.1735,-4.1808,-4.1815,-4.1926,-4.1945,-4.1955,-4.1956,-4.1958,-4.1956,-4.1985,-4.1975,-4.1955,-4.1953,-4.1952,-4.1951,0,-4.1266,-4.1285,-4.1411,-4.1467,-4.1483,-4.1565,-4.1612,-4.168,-4.1698,-4.1795,-4.1817,-4.1846,-4.1931,-4.1945,-4.2045,-4.205,-4.2183,-4.2172,-4.2164,-4.2163,-4.2245,-4.2237,-4.2508,-4.2543,-4.2313,-4.2315,-4.2317,0,-4.1383,-4.1462,-4.1527,-4.1577,-4.1611,-4.1692,-4.1742,-4.1748,-4.1801,-4.1872,-4.1931,-4.2014,-4.2082,-4.2218,-4.2247,-4.2323,-4.2314,-4.2404,-4.2325,-4.2324,-4.2316,-4.2311,-4.2319,-4.2419,-4.2421,-4.2423,-4.2425,0,-4.159,-4.1595,-4.1669,-4.1746,-4.1807,-4.1867,-4.1925,-4.1966,-4.198,-4.204,-4.2127,-4.218,-4.2282,-4.2364,-4.244,-4.247,-4.245,-4.2449,-4.2473,-4.2475,-4.2467,-4.2473,-4.2206,-4.2443,-4.2442,-4.244,-4.2439,-4.2438,-4.1736,-4.1805,-4.1862,-4.1944,-4.1988,-4.2042,-4.2109,-4.2136,-4.2209,-4.2294,-4.2292,-4.2388,-4.2442,-4.2541,-4.2577,-4.2651,-4.2622,-4.2655,-4.2664,-4.2672,-4.268,-4.2455,-4.2664,-4.2664,-4.2663,-4.2663,-4.2663,0,-4.1942,-4.1977,-4.2053,-4.2134,-4.2199,-4.2175,-4.2237,-4.2292,-4.2377,-4.243,-4.2496,-4.2596,-4.2676,-4.271,-4.2789,-4.2841,-4.2834,-4.2861,-4.2858,-4.2865,-4.2702,-4.2674,-4.2866,-4.2866,-4.2866,-4.2866,-4.2866,-4.2866,-4.2057,-4.2172,-4.2184,-4.232,-4.2354,-4.2449,-4.2486,-4.2535,-4.2577,-4.269,-4.2757,-4.2779,-4.2824,-4.2905,-4.2977,-4.2985,-4.3015,-4.3047,-4.3051,-4.2897,-4.2877,-4.2857,-4.2831,-4.3053,-4.3053,-4.3208,-4.3209,-4.3211]}]]